Lid_Strength_Index
12 11 11 11 11 10 10 11 12 14 14 12 12 11 10 10 9 11 11 9 7 6 5 5 5 5 5 4 4 5 4 4 4 3 3 2 1 1
12 12 12 11 11 11 11 11 11 12 14 12 12 11 11 10 10 11 11 9 8 6 5 5 5 5 5 4 4 4 4 4 3 3 2 2 2 1
12 12 12 12 12 12 12 12 12 12 13 12 12 12 12 13 12 12 11 11 11 7 6 6 6 6 5 5 5 5 5 5 4 3 3 2 1 2
13 13 12 11 13 13 13 13 13 13 13 14 14 14 14 13 13 13 11 10 11 8 7 6 5 5 5 6 6 5 5 5 5 5 5 4 3 3
13 13 13 13 13 13 13 13 13 12 13 14 14 14 14 14 14 13 13 13 11 9 8 7 7 6 6 6 6 6 6 7 7 6 5 5 4 3
13 13 13 13 14 14 13 13 13 14 14 14 15 14 14 14 14 14 14 13 13 11 10 9 8 7 7 6 7 7 7 7 7 6 6 6 5 4
13 13 13 12 11 11 12 13 13 14 14 14 15 15 15 14 14 14 15 14 14 13 13 13 12 12 11 9 9 8 7 7 7 6 6 5 5 4
13 13 13 12 11 10 9 8 10 13 13 14 14 15 15 15 14 14 14 15 15 13 14 14 13 13 12 12 9 8 7 7 7 6 6 6 5 5
12 13 12 12 11 12 10 9 8 7 7 11 13 13 13 13 13 14 15 15 15 13 13 14 13 14 13 11 10 9 8 7 7 7 6 6 6 6
12 12 12 12 12 12 13 13 12 12 11 10 10 10 11 10 11 12 12 12 12 11 13 15 14 14 13 13 10 9 9 8 8 7 7 7 6 6
11 11 11 12 10 8 11 12 12 11 8 7 7 7 7 7 8 11 12 13 14 14 13 14 14 14 14 13 13 9 7 7 7 7 7 7 7 7
11 11 8 9 7 7 9 11 12 11 10 10 11 10 8 9 7 9 11 13 15 15 13 13 15 15 16 13 13 12 12 9 9 8 8 8 8 9
10 10 10 7 6 5 5 9 9 9 9 9 10 10 10 10 10 10 10 11 14 12 11 13 15 15 15 15 13 11 11 11 12 11 9 8 8 9
9 9 9 6 5 5 5 5 5 5 8 9 10 11 11 10 10 10 9 10 9 9 10 9 10 11 12 10 11 12 11 10 10 10 11 9 7 7
7 7 5 5 5 5 5 5 5 9 11 12 11 11 11 10 11 10 10 11 12 11 8 10 9 8 8 9 10 10 10 10 11 11 10 10 10 11
7 8 7 5 5 6 7 7 8 9 10 10 10 11 12 12 11 11 10 11 9 9 8 9 9 7 7 7 8 9 9 12 13 13 12 11 10 10
6 8 9 9 9 9 9 9 9 9 10 9 9 9 10 10 9 11 8 8 9 9 10 11 8 8 7 7 8 7 8 8 8 9 10 9 9 8
5 7 8 7 8 8 8 8 9 7 8 8 8 8 9 11 11 9 8 8 9 9 9 13 14 9 8 7 5 8 7 7 7 8 8 9 9 7
6 6 7 7 7 7 7 7 8 8 7 8 8 8 10 10 9 9 11 9 9 7 9 12 11 8 9 11 8 4 7 8 8 8 8 7 8 7
6 7 7 7 7 7 7 7 8 8 8 7 8 9 9 9 10 8 7 7 9 9 10 10 8 8 9 10 10 8 4 7 8 8 7 7 6 5
7 7 7 7 7 7 7 7 7 8 10 10 10 9 9 9 7 6 6 5 6 8 9 9 7 4 6 6 9 9 6 4 5 7 7 7 8 8
6 7 7 6 6 7 8 8 10 10 10 10 9 8 7 6 6 6 6 6 7 6 7 6 8 10 6 7 8 8 7 7 5 3 3 4 8 11
5 5 5 6 6 7 8 8 9 9 9 8 9 6 6 6 5 5 5 6 6 6 7 7 7 6 7 7 7 7 8 8 7 7 7 3 2 2